Tracking 29892 objects as of 21-Nov-2024
HD Live streaming from Space Station
objects crossing your sky now

ARIANE 1 DEB *

Track ARIANE 1 DEB * now!
10-day predictions


NORAD ID: 18290
Int'l Code: 1986-019RY
Perigee: 681.6 km
Apogee: 812.9 km
Inclination: 98.0 °
Period: 99.6 minutes
Semi major axis: 7118 km
RCS: 0.0124 m2 (small)
Launch date: February 22, 1986
Source: France (FR)
Launch site: FRENCH GUIANA (FRGUI)

Note: This is SATELLITE DEBRIS
Your satellite tracking list
Your tracking list is empty




NASA's NSSDC Master Catalog

Two Line Element Set (TLE):
1 18290U 86019RY  24325.03958257  .00001344  00000-0  37254-3 0  9995
2 18290  97.9517 257.2620 0092211  25.7200 334.8536 14.45594101 63943
Source of the keplerian elements: AFSPC